Weather Roundup
Issued by NWS

Home | Current Version | Previous Version | Graphics & Text | Print | Product List | Glossary Off
Versions: 1 2 3 4 5 6 7 8 9 10 11 12 13 14 15 16 17 18 19 20 21 22 23 24 25 26 27 28 29 30 31 32 33 34 35 36 37 38 39 40 41 42 43 44 45 46 47 48 49 50

000
NZUS93 KARX 270359
HRRWXR

CURRENT HOURLY OBSERVATIONS ACROSS
MUCH OF THE UPPER MISSISSIPPI VALLEY
NATIONAL WEATHER SERVICE LA CROSSE WI
1100 PM CDT WED JUL 26 2017


...SOUTHEAST MINNESOTA...


CITY           SKY/WX    TMP DP  RH WIND       PRES   REMARKS
ROCHESTER      CLEAR     69  67  93 N7        30.02F
ROCHESTER/MAYO FAIR      72  70  95 CALM      30.02F
WINONA         CLEAR     70  70 100 CALM      29.99S
AUSTIN         CLEAR     70  64  83 CALM      30.01F
ALBERT LEA     CLEAR     68  66  94 N3        30.03S
DODGE CENTER   PTCLDY    66  63  88 N3        30.03F
PRESTON        PTCLDY    70  67  90 N6        30.02S
OWATONNA       CLEAR     66  64  94 CALM      30.03S
FARIBAULT      CLEAR     66  64  94 CALM      30.03S
$$

...ELSEWHERE IN MINNESOTA...


CITY           SKY/WX    TMP DP  RH WIND       PRES   REMARKS
MINNEAPOLIS    PTCLDY    75  62  64 CALM      30.02R
INTNL FALLS    MOCLDY    61  58  90 CALM      30.03S
DULUTH         CLEAR     66  60  81 N5        30.03R
RED WING       CLEAR     66  63  88 CALM      30.00S
REDWOOD FALLS  CLEAR     70  61  73 NW6       30.05R
MANKATO        CLEAR     69  63  81 N5        30.03S
WORTHINGTON    CLEAR     63  61  93 NW3       30.08S
FAIRMONT       CLEAR     66  63  90 NW3       30.05R
$$

...SOUTHWEST WISCONSIN...


CITY           SKY/WX    TMP DP  RH WIND       PRES   REMARKS
LA CROSSE      MOCLDY    76  73  91 N5        29.97S
PRAIRIE DU CHI CLOUDY    73  70  89 CALM      29.96F
BOSCOBEL       FOG       71  69  93 CALM      29.97F VSB 3/4
LONE ROCK      FOG       70  70 100 CALM      29.98R VSB 1/2
PLATTEVILLE    MOCLDY    71  71 100 N3        29.99R
FORT MC COY    CLOUDY    70  69  95 CALM      30.00S
MAUSTON-NEW LI MOCLDY    71  71  99 CALM      29.98S FOG
VIROQUA        MOCLDY    72  71  99 CALM      30.01S
WIS DELLS      FOG       69  68  95 CALM      29.99S VSB 1/4
$$

...ELSEWHERE IN WISCONSIN...


CITY           SKY/WX    TMP DP  RH WIND       PRES   REMARKS
MILWAUKEE      CLOUDY    74  70  87 S3        29.96F
MADISON        CLOUDY    71  70  96 CALM      29.98S
GREEN BAY      CLOUDY    73  73 100 SW5       29.97R
EAU CLAIRE     NOT AVBL
BLACK RVR FLS  FOG       65  65 100 CALM      29.99S VSB<1/4
MEDFORD        PTCLDY    62  61  96 CALM      30.02R
WAUSAU         CLEAR     68  67  96 NW3       29.99S
WIS RAPIDS     FOG       69  69 100 CALM      30.01R VSB 3/4
MARSHFIELD     CLEAR     66  64  93 NW3       30.00S FOG
RICE LAKE      CLEAR     65  63  95 CALM      30.03S
$$

...NORTHEAST IOWA...


CITY           SKY/WX    TMP DP  RH WIND       PRES   REMARKS
WATERLOO       CLOUDY    73  69  87 NW6       29.98R
DUBUQUE          N/A    N/A N/A N/A MISG      29.98R
DECORAH        CLOUDY    72  72 100 CALM      29.99S
MASON CITY     MOCLDY    71  69  93 NW6       30.03S
CHARLES CITY   CLOUDY    72  72 100 NW6       30.01S
OELWEIN        NOT AVBL
$$

...ELSEWHERE IN IOWA...


CITY           SKY/WX    TMP DP  RH WIND       PRES   REMARKS
DES MOINES     CLOUDY    75  73  93 N5        29.99R
IOWA CITY      CLOUDY    76  72  87 CALM      29.98S
FORT DODGE     MOCLDY    70  68  94 CALM      30.03R
MARSHALLTOWN   CLOUDY    73  71  93 N3        29.98R
CEDAR RAPIDS   NOT AVBL
$$

...NORTHERN ILLINOIS...


CITY           SKY/WX    TMP DP  RH WIND       PRES   REMARKS
CHICAGO-OHARE  CLOUDY    78  70  76 S3        29.96S
CHICAGO-MIDWAY CLOUDY    80  72  76 S8        29.96S
MOLINE         CLOUDY    74  71  91 W3        29.95S
ROCKFORD       LGT RAIN  74  71  91 CALM      29.97F
PEORIA         CLOUDY    73  73 100 SE5       29.97F
$$

NOTE: "FAIR" INDICATES FEW OR NO CLOUDS BELOW 12,000 FEET WITH NO
SIGNIFICANT WEATHER AND/OR OBSTRUCTIONS TO VISIBILITY. WIND
SPEEDS ARE IN MILES-PER-HOUR.




USA.gov is the U.S. government's official web portal to all federal, state and local government web resources and services.